Weather History for Baker, OR

Change the Weather History Date:

Thursday, February 14, 2013

  Actual Average Record
Temperature  
Mean Temperature 33 °F 29 °F  
Max Temperature 41 °F 39 °F 58 °F (1996)
Min Temperature 24 °F 19 °F 3 °F (1952)
Degree Days  
Heating Degree Days 32 36  
Month to date heating degree days 470 522  
Since 1 July heating degree days 4923 5045  
Cooling Degree Days 0 0  
Month to date cooling degree days 0 0  
Year to date cooling degree days 0 0  
Moisture  
Dew Point 26 °F    
Average Humidity 76    
Maximum Humidity 92    
Minimum Humidity 59    
Precipitation  
Precipitation 0.00 in 0.02 in 0.32 in (2000)
Month to date precipitation 0.19 0.29  
Year to date precipitation 1.03 1.09  
Sea Level Pressure  
Sea Level Pressure 30.50 in    
Wind  
Wind Speed 3 mph (SW)    
Max Wind Speed 10 mph    
Max Gust Speed 18 mph    
Visibility 10 miles    
Events      
T = Trace of Precipitation, MM = Missing Value Source: NWS Daily Summary

Daily Weather History Graph

Daily Weather History Graph

Search for Another Location

Airport:

Trip Planner

Search our weather history database for the weather conditions in past years. The results will help you decide how hot, cold, wet, or windy it might be!

Date:

Astronomy

Feb. 14, 2013 Rise Set
Actual Time 6:52 AM PST 5:18 PM PST
Civil Twilight 6:22 AM PST 5:48 PM PST
Nautical Twilight 5:48 AM PST 6:23 PM PST
Astronomical Twilight 5:14 AM PST 6:57 PM PST
Moon 8:42 AM PST (2/14) 10:42 PM PST (2/14)
Length of Visible Light 11h 26m
Length of Day
10h 25m
Waxing Crescent, 22% of the Moon is Illuminated
Feb 14
Waxing Crescent
Feb 17
First Quarter
Feb 25
Full
Mar 4
Last Quarter
Mar 11
New

Hourly Weather History & Observations

Time (PST) Temp. Windchill Dew Point Humidity Pressure Visibility Wind Dir Wind Speed Gust Speed Precip Events Conditions
12:53 AM 30.9 °F 27.5 °F 26.1 °F 82% 30.41 in 10.0 mi WNW 3.5 mph - N/A   Clear
1:53 AM 32.0 °F 28.7 °F 25.0 °F 75% 30.43 in 10.0 mi West 3.5 mph - N/A   Clear
2:53 AM 28.9 °F 25.2 °F 24.1 °F 82% 30.45 in 10.0 mi SSE 3.5 mph - N/A   Partly Cloudy
3:53 AM 27.0 °F 21.6 °F 24.1 °F 89% 30.46 in 10.0 mi WSW 4.6 mph - N/A   Clear
4:53 AM 26.1 °F - 24.1 °F 92% 30.47 in 10.0 mi Calm Calm - N/A   Clear
5:53 AM 25.0 °F 19.3 °F 23.0 °F 92% 30.50 in 10.0 mi SW 4.6 mph - N/A   Clear
6:53 AM 26.1 °F 21.9 °F 23.0 °F 88% 30.51 in 10.0 mi SSE 3.5 mph - N/A   Clear
7:53 AM 30.9 °F 25.2 °F 27.0 °F 85% 30.51 in 10.0 mi SSE 5.8 mph - N/A   Clear
8:53 AM 35.1 °F - 27.0 °F 72% 30.51 in 10.0 mi Calm Calm - N/A   Clear
9:53 AM 37.0 °F 34.5 °F 28.0 °F 70% 30.51 in 10.0 mi Variable 3.5 mph - N/A   Clear
10:53 AM 39.9 °F - 27.0 °F 60% 30.51 in 10.0 mi Calm Calm - N/A   Scattered Clouds
11:53 AM 39.9 °F 37.8 °F 27.0 °F 60% 30.52 in 10.0 mi West 3.5 mph - N/A   Overcast
12:53 PM 39.9 °F 35.8 °F 28.9 °F 65% 30.51 in 10.0 mi West 5.8 mph - N/A   Overcast
1:53 PM 39.0 °F - 27.0 °F 62% 30.50 in 10.0 mi Calm Calm - N/A   Scattered Clouds
2:53 PM 39.9 °F 36.7 °F 28.0 °F 63% 30.50 in 10.0 mi SW 4.6 mph - N/A   Overcast
3:53 PM 39.9 °F 35.1 °F 28.0 °F 63% 30.51 in 10.0 mi WSW 6.9 mph - N/A   Overcast
4:53 PM 39.9 °F - 27.0 °F 60% 30.51 in 10.0 mi Calm Calm - N/A   Overcast
5:53 PM 36.0 °F 31.1 °F 27.0 °F 70% 30.51 in 10.0 mi SW 5.8 mph - N/A   Mostly Cloudy
6:53 PM 34.0 °F - 28.0 °F 79% 30.53 in 10.0 mi Calm Calm - N/A   Overcast
7:53 PM 32.0 °F - 27.0 °F 82% 30.52 in 10.0 mi Calm Calm - N/A   Clear
8:53 PM 32.0 °F 28.7 °F 26.1 °F 79% 30.53 in 10.0 mi WSW 3.5 mph - N/A   Mostly Cloudy
9:53 PM 28.0 °F - 25.0 °F 88% 30.55 in 10.0 mi Calm Calm - N/A   Partly Cloudy
10:53 PM 28.9 °F - 24.1 °F 82% 30.56 in 10.0 mi Calm Calm - N/A   Scattered Clouds
11:53 PM 27.0 °F - 24.1 °F 89% 30.56 in 10.0 mi Calm Calm - N/A   Clear